ONEWEB-0093, 45444

Orbit data source: Space-Track

ONEWEB-0093, 45444 is a payload satellite owned by One Web (UK) in LEO that was launched on Sat, 21 Mar 2020 UTC via a SOYUZ-2-1B launch vehicle from the Tyuratam Missile And Space Complex (TTMTR). Payload-class satellites include a variety of spacecraft equipped with specific instruments for various scientific and technological missions. These include communications satellites like Starlink; space stations such as the ISS; scientific satellites like the Hubble; Earth observation satellites from companies like Planet Labs, Umbra, and HawkEye 360; GPS; miniature CubeSats for education and research; and military/defense satellites.

Loading next visibility...
Identifier
45444, 2020-020W
Orbit
LEO
Country
Flag of UKUK
Related business
Manufacturer
One Web
Mission
Operational Commercial Communications
Bus & Motor
ARROW, Unknown motor
Mass
148 kg wet, ~140 kg dry
Launch date (UTC)
2020-03-21 (6 years ago)
Launch vehicle
SOYUZ-2-1B
Launch site
Tyuratam Missile And Space Complex (TTMTR)
Object type
Payload
Rocket body
Debris
Shape & HBR
Trap Box + 2 Pan, 6.7 m
Radar Cross Section
3.464 m², Large (>1 m²)

Expand to show TLE details & history
Last TLE update: 16 hours ago

TLE from 16 hours ago
0 ONEWEB-0093
1 45444U 20020W   25286.86765109  .00000294  00000-0  79235-3 0  9994
2 45444  87.8824  70.1034 0001236  86.5554 273.5715 13.11414240270392
Epoch: 2025-10-13T20:49Z
TLE epoch observation values (Epoch: 2025-10-13T20:49:25.054Z)
Latitude
-0.00003°
Longitude
95.08474°
Altitude
1,220.524 km
Speed
7.244 km/s
True Right ascension
04h 40m 24s
True Declination
0° 00' 00"
Sunlit
Object was in full shadow at epoch
Visualization orbit readout
Latitude
Unknown
Longitude
Unknown
Altitude
Unknown
Speed
Unknown
Apparent Right ascension
Unknown
Apparent Declination
Unknown
Sunlit
N/A
Visualization observer readout
Local Sidereal Time
07:02:20
Azimuth
Unknown
Elevation
Unknown
Doppler factor
Unknown
Orbital elements
Apogee altitude
1,215.75 km
Perigee altitude
1,213.873 km
Semi-major axis
7,592.948 km
Eccentricity
0.00012
Inclination
87.8824°
RAAN
70.1034°
Arg. of periapsis
86.5554°
True anomaly
273.55736°
Mean anomaly
273.5715°
Eccentric anomaly
273.56443°
Mean motion
3.28041 °/min
Orbital period
109.74 mins
BSTAR
0.00079235
Loading maneuver chart data...
Computing Atmospheric mass density...
Loading historical data...
Loading historical data...
Loading historical data...
Loading historical data...
Loading historical data...
Loading historical data...
Loading historical data...

Documentation

Showing up to 5 results
|